Location: *
(37.5724°S, 58.0067°E)
Time: 20:32:33
(UTC+00:00)

Cosmos 1943 - Pass Details

Date: 26 September 2020
Orbit: 833 x 850 km, 71.0° (Epoch: 27 October)

Event Time Altitude Azimuth Distance (km) Brightness Sun altitude
Rises 14:45:32 0° 11° (N) 3,404 6.2 -8.2°
Reaches altitude 10° 14:48:18 10° 22° (NNE) 2,478 5.3 -8.7°
Maximum altitude 14:53:00 27° 78° (ENE) 1,591 4.1 -9.7°
Drops below altitude 10° 14:57:44 10° 134° (SE) 2,502 5.3 -10.6°
Sets 15:00:32 0° 145° (SE) 3,444 6.1 -11.1°
